TimePDT,TemperatureF,Dew PointF,Humidity,Sea Level PressureIn,VisibilityMPH,Wind Direction,Wind SpeedMPH,Gust SpeedMPH,PrecipitationIn,Events,Conditions,WindDirDegrees,DateUTC
12:45 AM,44.6,44.6,100,29.85,0.5,Variable,4.6,-,0.00,Fog-Rain,Light Rain,0,2013-06-19 07:45:00
12:53 AM,44.1,43.0,96,29.63,0.2,Variable,5.8,-,0.00,Fog-Rain,Light Rain,0,2013-06-19 07:53:00
1:53 AM,43.0,43.0,100,29.60,0.2,Variable,6.9,-,0.18,Fog-Rain,Light Rain,0,2013-06-19 08:53:00
2:20 AM,42.8,42.8,100,29.85,0.2,Variable,6.9,17.3,0.10,Fog-Rain,Heavy Rain,0,2013-06-19 09:20:00
2:30 AM,42.8,42.8,100,29.85,0.2,NW,8.1,19.6,0.10,Fog-Rain,Light Rain,320,2013-06-19 09:30:00
2:53 AM,42.1,42.1,100,29.61,0.2,NW,9.2,18.4,0.11,Fog-Rain,Light Rain,320,2013-06-19 09:53:00
3:53 AM,41.0,41.0,100,29.59,0.2,NNW,11.5,23.0,0.00,Fog,Fog,330,2013-06-19 10:53:00
4:34 AM,41.0,41.0,100,29.81,0.5,NNW,9.2,-,N/A,Fog,Fog,340,2013-06-19 11:34:00
4:40 AM,41.0,41.0,100,29.83,0.2,Calm,Calm,-,N/A,Fog,Fog,0,2013-06-19 11:40:00
4:53 AM,41.0,41.0,100,29.60,-9999.0,Variable,5.8,-,N/A,,Overcast,0,2013-06-19 11:53:00
5:53 AM,41.0,41.0,100,29.62,-9999.0,NW,9.2,20.7,0.04,Rain,Light Rain,320,2013-06-19 12:53:00
6:00 AM,39.2,39.2,100,29.82,0.2,NW,9.2,19.6,0.01,Fog-Rain,Light Rain,320,2013-06-19 13:00:00
6:10 AM,39.2,39.2,100,29.83,0.5,NW,9.2,16.1,0.02,Fog-Rain,Light Rain,320,2013-06-19 13:10:00
6:17 AM,39.2,39.2,100,29.82,0.2,NNW,8.1,16.1,0.03,Fog-Rain,Rain,330,2013-06-19 13:17:00
6:29 AM,39.2,39.2,100,29.82,0.5,NNW,8.1,-,0.03,Fog-Rain,Light Rain,330,2013-06-19 13:29:00
6:33 AM,39.2,39.2,100,29.82,0.2,NNW,9.2,16.1,0.04,Fog-Rain,Light Rain,330,2013-06-19 13:33:00
6:49 AM,39.2,39.2,100,29.82,0.2,NNW,8.1,-,0.04,Fog-Rain,Light Rain,330,2013-06-19 13:49:00
6:53 AM,39.0,39.0,100,29.62,0.2,NNW,9.2,-,0.04,Fog-Rain,Light Rain,330,2013-06-19 13:53:00
7:06 AM,39.2,39.2,100,29.81,0.2,NNW,9.2,-,0.02,Fog-Rain,Rain,330,2013-06-19 14:06:00
7:39 AM,39.2,39.2,100,29.83,-9999.0,NW,5.8,-,0.04,Rain,Light Rain,310,2013-06-19 14:39:00
7:53 AM,39.9,39.9,100,29.65,-9999.0,Variable,6.9,-,0.06,Rain,Light Rain,0,2013-06-19 14:53:00
8:34 AM,39.2,39.2,100,29.83,-9999.0,NNW,6.9,-,0.08,Rain,Rain,340,2013-06-19 15:34:00
8:41 AM,39.2,39.2,100,29.83,0.2,NNW,6.9,-,0.09,Fog-Rain,Rain,330,2013-06-19 15:41:00
8:53 AM,39.0,39.0,100,29.69,0.2,NNW,6.9,-,0.11,Fog-Rain,Light Rain,340,2013-06-19 15:53:00
9:05 AM,39.2,39.2,100,29.81,0.2,NNW,6.9,-,0.01,Fog-Rain,Light Rain,340,2013-06-19 16:05:00
9:15 AM,39.2,39.2,100,29.81,0.2,NNW,5.8,-,0.01,Fog-Rain,Light Rain,340,2013-06-19 16:15:00
9:22 AM,39.2,39.2,100,29.81,0.5,North,6.9,-,0.02,Fog-Rain,Light Rain,350,2013-06-19 16:22:00
9:32 AM,39.2,39.2,100,29.81,1.5,North,4.6,-,0.02,Rain,Light Rain,350,2013-06-19 16:32:00
9:37 AM,39.2,39.2,100,29.80,4.0,NNW,4.6,-,0.03,Rain,Light Rain,330,2013-06-19 16:37:00
9:53 AM,39.0,39.0,100,29.68,2.0,North,5.8,-,0.03,Rain,Light Rain,350,2013-06-19 16:53:00
10:05 AM,39.2,39.2,100,29.80,0.8,Calm,Calm,-,0.01,Rain,Light Rain,0,2013-06-19 17:05:00
10:14 AM,41.0,41.0,100,29.81,-9999.0,Calm,Calm,-,0.02,Rain,Light Rain,0,2013-06-19 17:14:00
10:39 AM,41.0,39.2,93,29.81,-9999.0,Calm,Calm,-,0.04,Rain,Light Rain,0,2013-06-19 17:39:00
10:53 AM,39.9,39.9,100,29.68,-9999.0,NNW,3.5,-,0.06,Rain,Light Rain,340,2013-06-19 17:53:00
11:07 AM,39.2,39.2,100,29.82,-9999.0,Calm,Calm,-,0.01,Rain,Light Rain,0,2013-06-19 18:07:00
11:23 AM,41.0,41.0,100,29.82,-9999.0,North,4.6,-,0.03,Rain,Light Rain,350,2013-06-19 18:23:00
11:38 AM,39.2,39.2,100,29.82,0.5,Calm,Calm,-,0.04,Fog-Rain,Light Rain,0,2013-06-19 18:38:00
11:42 AM,41.0,41.0,100,29.81,0.2,Calm,Calm,-,0.04,Fog-Rain,Light Rain,0,2013-06-19 18:42:00
11:49 AM,39.2,39.2,100,29.81,0.5,Calm,Calm,-,0.04,Fog-Rain,Light Rain,0,2013-06-19 18:49:00
11:50 AM,39.2,39.2,100,29.82,1.0,Calm,Calm,-,0.04,Rain,Light Rain,0,2013-06-19 18:50:00
11:53 AM,39.9,39.9,100,29.67,2.5,Calm,Calm,-,0.05,Rain,Light Rain,0,2013-06-19 18:53:00
11:56 AM,41.0,39.2,93,29.83,1.0,Calm,Calm,-,0.00,Rain,Light Rain,0,2013-06-19 18:56:00
11:58 AM,41.0,41.0,100,29.83,0.2,Calm,Calm,-,0.00,Fog-Rain,Light Rain,0,2013-06-19 18:58:00
12:06 PM,39.2,39.2,100,29.83,0.2,Calm,Calm,-,0.01,Fog-Rain,Light Rain,0,2013-06-19 19:06:00
12:25 PM,39.2,39.2,100,29.84,0.2,Calm,Calm,-,0.03,Fog-Rain,Rain,0,2013-06-19 19:25:00
12:30 PM,39.2,39.2,100,29.83,0.2,Calm,Calm,-,0.04,Fog-Rain,Rain,0,2013-06-19 19:30:00
12:44 PM,41.0,41.0,100,29.81,0.2,North,5.8,-,0.06,Fog-Rain,Light Rain,350,2013-06-19 19:44:00
12:53 PM,41.0,41.0,100,29.70,0.2,Calm,Calm,-,0.07,Fog-Rain,Light Rain,0,2013-06-19 19:53:00
1:01 PM,39.2,39.2,100,29.84,1.0,Calm,Calm,-,0.00,Rain,Light Rain,0,2013-06-19 20:01:00
1:04 PM,41.0,39.2,93,29.84,2.0,Calm,Calm,-,0.00,Rain,Light Rain,0,2013-06-19 20:04:00
1:12 PM,41.0,39.2,93,29.83,5.0,Calm,Calm,-,0.01,Rain,Light Rain,0,2013-06-19 20:12:00
1:14 PM,41.0,41.0,100,29.84,5.0,Calm,Calm,-,0.01,Rain,Light Rain,0,2013-06-19 20:14:00
1:19 PM,41.0,41.0,100,29.83,2.5,North,3.5,-,0.02,Rain,Light Rain,10,2013-06-19 20:19:00
1:21 PM,41.0,41.0,100,29.83,1.0,North,3.5,-,0.03,Rain,Rain,360,2013-06-19 20:21:00
1:23 PM,41.0,41.0,100,29.83,0.5,North,4.6,-,0.03,Fog-Rain,Rain,360,2013-06-19 20:23:00
1:31 PM,41.0,41.0,100,29.82,-9999.0,North,4.6,-,0.04,Rain,Light Rain,350,2013-06-19 20:31:00
1:38 PM,39.2,39.2,100,29.83,-9999.0,Calm,Calm,-,0.04,Rain,Light Rain,0,2013-06-19 20:38:00
1:50 PM,41.0,41.0,100,29.82,-9999.0,North,6.9,-,0.04,,Overcast,360,2013-06-19 20:50:00
1:53 PM,41.0,41.0,100,29.66,-9999.0,North,5.8,-,0.04,,Overcast,360,2013-06-19 20:53:00
1:57 PM,41.0,41.0,100,29.83,-9999.0,Calm,Calm,-,N/A,,Overcast,0,2013-06-19 20:57:00
2:16 PM,42.8,42.8,100,29.84,-9999.0,Calm,Calm,-,0.02,Rain,Light Rain,0,2013-06-19 21:16:00
2:22 PM,41.0,41.0,100,29.85,1.2,Calm,Calm,-,0.02,Rain,Light Rain,0,2013-06-19 21:22:00
2:26 PM,41.0,41.0,100,29.85,2.0,Calm,Calm,-,0.02,Rain,Light Rain,0,2013-06-19 21:26:00
2:38 PM,41.0,41.0,100,29.85,1.2,Calm,Calm,-,0.06,Rain,Rain,0,2013-06-19 21:38:00
2:48 PM,41.0,41.0,100,29.85,0.2,Calm,Calm,-,0.09,Fog-Rain,Rain,0,2013-06-19 21:48:00
2:53 PM,41.0,41.0,100,29.70,0.2,Calm,Calm,-,0.09,Fog-Rain,Light Rain,0,2013-06-19 21:53:00
3:12 PM,41.0,41.0,100,29.86,0.2,Variable,3.5,-,0.00,Fog-Rain,Light Rain,0,2013-06-19 22:12:00
3:53 PM,41.0,41.0,100,29.71,0.2,NW,4.6,-,0.01,Fog-Rain,Light Rain,320,2013-06-19 22:53:00
4:53 PM,41.0,41.0,100,29.73,-9999.0,Variable,3.5,-,0.00,Rain,Light Rain,0,2013-06-19 23:53:00
5:53 PM,41.0,41.0,100,29.69,-9999.0,NNW,6.9,-,0.01,,Overcast,330,2013-06-20 00:53:00
6:53 PM,41.0,41.0,100,29.73,-9999.0,NNW,5.8,-,N/A,,Overcast,330,2013-06-20 01:53:00
7:53 PM,39.9,39.9,100,29.74,-9999.0,Variable,4.6,-,0.00,Rain,Light Rain,0,2013-06-20 02:53:00
8:53 PM,39.9,39.9,100,29.69,-9999.0,NW,8.1,-,0.01,,Overcast,310,2013-06-20 03:53:00
9:53 PM,39.0,39.0,100,29.71,-9999.0,Variable,5.8,-,0.02,Rain,Light Rain,0,2013-06-20 04:53:00
10:53 PM,37.9,37.9,100,29.73,-9999.0,Variable,5.8,-,0.03,Rain,Light Rain,0,2013-06-20 05:53:00
11:53 PM,37.0,37.0,100,29.72,-9999.0,WSW,8.1,-,0.03,Rain,Light Rain,240,2013-06-20 06:53:00